Campo, CA

2:48 AM PDT on June 28, 2017 (GMT -0700)
Campo

Weather History for KCZZ - August, 2012

Change the Weather History Date:

Thursday, August 2, 2012

  Actual Average Record
Temperature  
Mean Temperature 75 °F 74 °F  
Max Temperature 89 °F 95 °F 104 °F (1997)
Min Temperature 60 °F 54 °F 39 °F (1985)
Degree Days  
Heating Degree Days 0 0  
Month to date heating degree days 0 0  
Since 1 June heating degree days 65 63  
Since 1 July heating degree days 9 7  
Cooling Degree Days 10 9  
Month to date cooling degree days 20 18  
Year to date cooling degree days 291 390  
Since 1 June cooling degree days 268 360  
Growing Degree Days 25 (Base 50)    
Moisture  
Dew Point 49 °F    
Average Humidity 50    
Maximum Humidity 78    
Minimum Humidity 22    
Precipitation  
Precipitation 0.00 in 0.02 in 0.26 in (2014)
Month to date precipitation 0.00 0.04  
Year to date precipitation 6.40 10.51  
Since 1 July precipitation 0.35  
Snow  
Snow 0.00 in - - ()
Month to date snowfall 0.0  
Year to date snowfall 0.0  
Snow Depth 0.00 in    
Sea Level Pressure  
Sea Level Pressure 29.89 in    
Wind  
Wind Speed 7 mph (SSE)    
Max Wind Speed 21 mph    
Max Gust Speed 25 mph    
T = Trace of Precipitation, MM = Missing Value Source: NWS Daily Summary

Daily Weather History Graph

Daily Weather History Graph

Search for Another Location

Airport or City:

Trip Planner

Search our weather history database for the weather conditions in past years. The results will help you decide how hot, cold, wet, or windy it might be!

Date:

Astronomy

Aug. 02, 2012 Rise Set
Actual Time 6:01 AM PDT 7:42 PM PDT
Civil Twilight 5:34 AM PDT 8:09 PM PDT
Nautical Twilight 5:02 AM PDT 8:41 PM PDT
Astronomical Twilight 4:28 AM PDT 9:15 PM PDT
Moon 7:58 PM PDT (8/2) 6:37 AM PDT (8/2)
Length of Visible Light 14h 34m
Length of Day
13h 41m
Waxing Gibbous, 99% of the Moon is Illuminated
Aug 2
Waxing Gibbous
Aug 9
Last Quarter
Aug 17
New
Aug 24
First Quarter
Aug 31
Full

Hourly Weather History & Observations

Time (PDT) Temp. Dew Point Humidity Pressure Visibility Wind Dir Wind Speed Gust Speed Precip Events Conditions
12:52 AM 64.0 °F 51.1 °F 63% 29.93 in - ENE 4.6 mph - N/A   Unknown
1:52 AM 64.9 °F 50.0 °F 58% 29.92 in - NE 4.6 mph - N/A   Unknown
2:52 AM 64.9 °F 50.0 °F 58% 29.91 in - ENE 3.5 mph - N/A   Unknown
3:52 AM 64.0 °F 52.0 °F 65% 29.91 in - ENE 3.5 mph - N/A   Unknown
4:52 AM 61.0 °F 53.1 °F 75% 29.92 in - NE 3.5 mph - N/A   Unknown
5:52 AM 61.0 °F 51.1 °F 70% 29.93 in - ENE 5.8 mph - N/A   Unknown
6:52 AM 64.0 °F 51.1 °F 63% 29.94 in - ENE 3.5 mph - N/A   Unknown
7:52 AM 73.0 °F 50.0 °F 44% 29.93 in - Calm Calm - N/A   Unknown
8:52 AM 77.0 °F 46.0 °F 33% 29.93 in - South 3.5 mph - N/A   Unknown
9:52 AM 81.0 °F 42.1 °F 25% 29.92 in - South 4.6 mph - N/A   Unknown
10:52 AM 84.9 °F 42.1 °F 22% 29.91 in - SSW 9.2 mph - N/A   Unknown
11:52 AM 86.0 °F 44.1 °F 23% 29.90 in - SW 11.5 mph 17.3 mph N/A   Unknown
12:52 PM 87.1 °F 44.1 °F 22% 29.89 in - SW 11.5 mph - N/A   Unknown
1:52 PM 89.1 °F 46.0 °F 22% 29.87 in - SW 12.7 mph - N/A   Unknown
2:52 PM 87.1 °F 46.0 °F 24% 29.86 in - SSW 13.8 mph - N/A   Unknown
3:52 PM 88.0 °F 48.0 °F 25% 29.84 in - SSW 16.1 mph 25.3 mph N/A   Unknown
4:52 PM 86.0 °F 50.0 °F 29% 29.83 in - SSW 15.0 mph - N/A   Unknown
5:52 PM 82.9 °F 46.9 °F 28% 29.83 in - SSW 13.8 mph - N/A   Unknown
6:52 PM 78.1 °F 50.0 °F 37% 29.83 in - SSW 11.5 mph - N/A   Unknown
7:52 PM 73.0 °F 50.0 °F 44% 29.85 in - South 6.9 mph - N/A   Unknown
8:52 PM 69.1 °F 51.1 °F 53% 29.85 in - Calm Calm - N/A   Unknown
9:52 PM 66.0 °F 51.1 °F 59% 29.86 in - NNE 3.5 mph - N/A   Unknown
10:52 PM 64.9 °F 52.0 °F 63% 29.86 in - NNE 3.5 mph - N/A   Unknown
11:52 PM 62.1 °F 53.1 °F 72% 29.86 in - Calm Calm - N/A   Unknown